Vertical_Velocity
0 4 -0 1 13 3 19 21 6 1 7 -6 37 20 9 4 10 5 -1 0 5 6 -0 1 -0 2 -1 -1 0 -0 -0 0 -0 -1 -1 -1 -1 -0 -2 -2 -1 1 -1 1 0 -1 -1 -1 -3 -1 2 -1 0 1
-2 6 8 15 21 9 18 12 15 9 12 7 5 4 1 4 3 0 2 3 1 1 2 -0 2 3 4 1 -1 1 0 0 -0 -2 -1 1 -0 1 1 -2 -0 -3 -2 -0 -1 6 -1 1 -1 3 0 0 1 1
-4 3 3 8 7 9 9 7 1 1 3 1 -0 1 3 2 1 5 2 2 -0 -2 -0 -1 1 -0 -0 -1 0 -0 -0 -0 -1 -1 -1 -0 -1 0 -1 -2 -4 -0 -1 -0 -2 -1 2 0 1 -1 -1 1 1 2
-1 1 5 0 3 5 3 1 -0 0 1 1 0 -0 1 1 3 3 2 1 -2 4 -0 -0 -2 -1 -0 -1 -0 -0 -1 -1 -1 -1 -1 -1 2 1 -0 -2 -2 -2 4 0 -2 -2 1 2 -3 0 2 0 2 1
-1 -3 -1 1 3 4 3 3 3 2 -0 -1 1 2 2 3 2 1 -2 -2 -2 -5 1 -0 1 -0 -0 -1 -2 -1 -1 -1 -1 -1 -1 -1 0 1 -0 -1 -1 -3 -1 4 -0 3 1 -1 1 1 2 3 1 1
-1 2 3 3 1 1 3 2 -1 -2 0 3 2 2 2 -0 2 -1 1 0 -1 -0 -3 -3 -3 -0 -2 -1 -1 -1 -1 -1 -1 -1 -0 1 0 1 0 -0 -1 -1 -2 3 2 1 -0 -0 -1 0 0 0 0 -0
0 1 1 1 2 1 -0 1 1 2 1 1 0 -1 -1 -1 2 3 2 3 2 1 -3 -3 -2 1 -1 -1 -1 -1 -1 -1 -1 -1 -1 1 2 2 0 -1 -0 -0 -1 2 1 1 0 1 2 2 1 2 2 0
2 3 1 1 -0 -0 -0 1 -1 -1 -1 -1 -0 1 0 1 -2 -2 1 1 2 -0 -0 -0 -0 -3 -1 -2 -1 -2 -2 -2 -1 -1 -1 -0 2 -0 -2 -1 -0 1 -1 1 1 2 3 2 1 2 1 1 0 -1
-0 2 -1 -0 -0 1 0 -2 -1 2 2 2 -1 -1 -0 -0 1 0 -0 -0 -1 -1 2 -0 -2 -2 -2 -1 -2 -2 -2 -1 1 -1 -0 1 -1 -1 -2 -1 -0 3 1 1 2 1 3 2 2 1 2 3 1 -1
-1 -1 2 1 3 2 -1 1 6 1 0 1 1 2 -1 -1 -1 -1 -1 -2 0 -1 -0 -1 -0 0 -1 -1 -2 -2 -2 -1 -0 0 0 -1 -0 -2 -1 -1 -1 -1 6 0 -1 1 2 3 2 2 2 0 1 1
-1 -0 -2 -0 -1 2 2 5 6 3 2 2 1 0 0 -1 -0 -1 -1 -0 -1 -0 1 1 -1 -1 -1 -3 -1 -2 -2 -3 -3 -4 -6 -0 -1 -3 -1 -0 -0 -3 7 0 -4 1 1 2 3 1 -1 1 -0 1
1 0 2 1 -0 -1 -1 -1 1 0 1 1 0 -0 -1 0 -1 -1 -1 0 -1 0 -0 -1 -1 -1 -1 -1 -1 -2 -2 -2 -4 -4 -2 -1 -1 -1 -1 -1 -1 -2 1 5 0 2 4 3 2 0 -1 2 2 0
1 1 -1 -2 -2 -0 -0 -1 -2 -1 0 0 -0 -0 -1 -2 -3 -2 -1 -0 1 -0 -1 -1 -1 -1 -2 -2 -1 -2 -2 -2 0 -0 -1 -0 -1 -1 0 -1 -1 -2 -3 -2 0 -3 -5 0 -0 1 1 2 1 0
-1 -0 0 1 -2 -2 -0 1 0 0 -0 -0 1 -1 -2 -2 -2 -1 -1 -2 -1 -1 -1 -1 -0 -1 -2 -2 -2 -2 -2 -1 -1 -1 -1 -1 0 1 3 1 -1 -2 -1 -0 -1 0 2 1 -0 1 2 2 1 3
-1 -0 1 1 1 1 1 -0 -1 -1 0 0 -1 -2 -0 -1 -2 -0 -0 0 -1 -1 -1 -1 -0 -1 -2 -2 -2 -1 -1 -1 -1 -1 -1 -1 -0 0 -1 0 -1 0 0 -0 -1 -1 -0 -0 1 1 2 1 2 1
0 -1 -1 -1 -1 -1 -1 0 -1 -2 0 -0 0 1 -1 -1 -0 0 0 -0 -0 -1 -0 -0 -1 -1 -3 -2 -2 -1 -1 -1 -0 -0 -0 -1 -1 0 -0 -1 2 2 0 -0 1 -0 -0 -1 0 1 0 2 2 2
-1 -1 0 -0 -0 -1 -0 -0 -1 -0 1 -1 -1 -0 -0 -1 -0 1 -0 -0 -0 0 0 -1 -1 -1 -2 -2 -2 -2 -2 -1 0 0 0 0 -1 -0 1 1 1 1 1 0 1 2 2 3 -0 0 3 3 2 -0
1 0 -0 -1 -1 -1 -0 -1 -1 -0 -1 -1 -1 0 0 0 -1 -2 1 0 -1 -0 -1 -1 -0 -1 -2 -3 -2 -2 -3 -2 -0 1 1 1 -0 -1 2 5 1 1 6 5 4 0 0 3 3 2 2 0 0 -0
1 -1 -1 -1 -1 0 0 -2 -2 -1 -2 -1 0 -1 -0 0 0 -0 -0 -0 -0 -1 -1 -1 1 -0 -2 -2 -2 -2 -3 -2 -2 -1 1 1 -1 -1 -0 0 2 4 3 3 3 2 2 3 2 2 1 -0 -0 -0
-0 -1 -1 -0 -0 -0 -1 -2 -1 -2 -2 -1 -1 -1 -1 -0 1 1 0 -1 -2 -2 -1 1 0 -1 -1 -1 -2 -1 -2 -1 -0 0 2 1 0 -0 -0 0 1 1 1 2 2 2 2 2 2 1 0 0 -0 0
-1 -1 -0 1 1 1 -0 -1 -2 -2 -1 1 0 -0 -0 1 1 1 -0 -1 -1 -1 -0 -1 -1 -1 -2 -2 -1 -1 -1 -1 -1 0 2 -1 1 1 0 0 1 2 2 1 1 1 2 2 0 -1 0 1 1 0
-0 -2 -2 -1 -1 -0 -0 0 0 -1 -1 1 -0 0 -0 -0 -0 -0 -1 -1 -2 -1 -1 -0 -1 -1 -1 -1 -1 -1 -0 1 -1 -1 0 -0 -0 1 1 1 1 2 1 1 1 1 0 -0 1 0 -0 -0 -0 -0
-1 -1 -0 -2 -2 -2 -0 -1 -1 -1 -0 -1 -2 -1 -1 -1 -1 0 -1 -2 -3 0 -0 -1 -0 -1 -2 -1 1 0 -1 -1 -1 -0 1 0 0 1 1 1 1 1 1 1 -0 -1 -1 -1 -1 -1 -1 -1 -0 0
-1 -1 0 0 -0 0 -1 -1 -2 -1 -1 -1 -1 -0 -1 -1 -2 -0 -0 -3 -2 -0 -1 -2 -2 -1 -0 -1 -1 -1 -0 0 0 0 -0 0 1 1 0 0 0 -0 -0 -0 -1 -1 -1 -1 -1 -1 -1 -0 0 0
-1 -1 -1 -2 -2 -2 -3 -2 -2 -1 -2 -3 -1 1 1 1 1 2 1 -3 -4 -2 -2 -1 0 -1 -1 -1 -1 -1 -1 -1 -0 1 0 -0 -0 -1 -0 -0 -1 -2 -2 -1 -1 -1 -0 -0 -1 -0 -0 -0 -0 0
-1 -2 -4 -2 -3 -4 -2 -2 -2 -2 -1 -0 1 1 0 2 2 3 -3 -6 -5 -3 -1 0 0 1 1 -0 -1 -2 -1 -0 0 -0 -0 -1 -0 -1 -1 -2 -3 -1 -1 0 -0 -1 0 0 0 0 1 1 1 1
-3 -3 -2 -1 -2 -1 -1 -1 0 -0 1 0 0 1 1 1 0 -2 -6 -5 -5 -4 -0 -0 1 2 1 1 0 -0 -0 -0 -1 -1 -1 -1 0 1 1 0 -1 -1 -1 -1 -0 1 1 2 1 1 1 2 1 1
-1 0 -0 1 1 1 -0 -0 -0 0 -0 -1 -1 -1 -1 -3 -3 -2 -4 -3 -1 2 4 3 1 -0 0 1 -0 -1 -2 -1 -0 0 0 -0 0 0 0 0 -0 -0 1 1 2 1 1 1 1 1 1 1 0 -0
-1 -1 -1 -1 -2 -2 -1 -0 -0 -1 -0 0 0 1 -1 -1 -0 1 1 2 1 0 -0 -0 0 1 -0 -0 0 1 1 0 0 1 1 0 0 0 1 1 1 1 1 1 1 1 1 1 1 0 -0 0 0 -0
-2 -2 -1 -1 -2 -2 -1 -2 -1 -1 -1 -1 -2 -1 -1 -1 -0 0 1 1 1 -0 0 1 0 -1 -1 -0 0 1 1 0 -0 -1 -0 1 1 1 1 1 1 1 0 0 0 0 0 -0 0 0 0 0 -0 -0
-0 -1 -1 -1 -1 -0 -2 -2 -2 -2 -1 -0 0 -0 -1 -0 0 2 1 0 1 1 0 0 -0 -1 -0 -0 0 1 1 0 -0 0 0 1 1 1 1 1 0 0 0 0 0 0 0 0 1 1 1 -0 -0 -0
-3 -1 -1 -2 -2 -3 -1 -1 -1 1 -1 0 0 1 0 0 1 4 1 -1 0 1 -1 -1 -0 1 2 1 1 1 0 0 1 1 1 1 1 1 0 0 0 0 0 0 0 0 0 0 1 0 -0 -1 -0 0
2 -1 -3 -2 -1 -0 -5 -4 -1 1 1 -1 0 -2 -0 -2 -3 5 0 -4 -3 -2 0 1 2 0 -0 0 2 1 1 1 1 0 1 1 1 1 0 0 1 1 1 1 -0 -0 0 1 0 0 0 0 -0 -0
Height
5298 5298 5300 5308 5317 5325 5332 5343 5354 5364 5377 5390 5403 5416 5430 5440 5449 5457 5465 5471 5477 5481 5484 5489 5492 5497 5502 5507 5512 5517 5519 5521 5523 5525 5527 5529 5530 5531 5532 5534 5536 5538 5538 5539 5541 5542 5544 5544 5545 5547 5549 5549 5551 5552
5305 5307 5310 5315 5324 5334 5343 5353 5364 5373 5384 5395 5407 5419 5429 5437 5446 5454 5460 5465 5469 5474 5479 5484 5489 5495 5501 5506 5511 5513 5516 5518 5519 5521 5524 5525 5527 5528 5530 5531 5532 5535 5535 5535 5537 5540 5541 5541 5543 5545 5547 5549 5551 5552
5312 5316 5320 5326 5333 5342 5351 5361 5370 5380 5390 5400 5410 5419 5427 5435 5442 5450 5455 5460 5464 5470 5477 5483 5488 5494 5500 5504 5508 5511 5512 5514 5516 5518 5519 5521 5523 5525 5526 5527 5527 5530 5531 5531 5533 5536 5538 5540 5542 5544 5547 5548 5550 5551
5319 5324 5330 5336 5342 5350 5358 5367 5377 5386 5394 5401 5409 5417 5425 5433 5439 5446 5452 5457 5464 5472 5476 5482 5487 5494 5498 5502 5505 5507 5509 5511 5513 5514 5515 5517 5519 5521 5522 5524 5525 5526 5528 5530 5530 5533 5536 5539 5541 5543 5546 5547 5548 5549
5326 5331 5336 5343 5350 5358 5366 5373 5381 5388 5395 5403 5410 5418 5425 5431 5438 5445 5450 5457 5464 5471 5477 5483 5488 5493 5497 5499 5502 5504 5506 5507 5508 5509 5511 5512 5514 5516 5518 5520 5521 5522 5524 5527 5528 5531 5534 5537 5539 5542 5544 5545 5547 5548
5333 5337 5343 5348 5355 5363 5370 5377 5383 5391 5398 5405 5412 5420 5426 5433 5440 5446 5453 5459 5465 5472 5478 5482 5487 5491 5494 5497 5500 5501 5503 5504 5504 5505 5505 5506 5508 5511 5513 5516 5518 5519 5520 5524 5526 5529 5531 5535 5537 5539 5542 5544 5546 5547
5342 5346 5351 5357 5364 5370 5375 5382 5388 5396 5403 5409 5416 5423 5429 5436 5444 5451 5457 5463 5467 5472 5477 5482 5485 5489 5492 5495 5497 5498 5499 5500 5500 5500 5501 5502 5504 5506 5508 5512 5514 5515 5516 5519 5522 5526 5529 5532 5534 5536 5539 5541 5543 5544
5349 5354 5359 5365 5371 5378 5383 5389 5395 5402 5408 5414 5421 5427 5434 5440 5446 5451 5456 5462 5467 5472 5477 5481 5484 5488 5491 5493 5495 5495 5496 5496 5496 5497 5498 5499 5501 5502 5504 5507 5510 5512 5513 5514 5518 5521 5525 5529 5531 5534 5536 5538 5540 5541
5355 5360 5366 5373 5379 5383 5389 5395 5402 5408 5414 5420 5426 5431 5436 5442 5448 5452 5457 5462 5467 5473 5476 5480 5484 5487 5490 5491 5492 5493 5493 5492 5493 5494 5496 5498 5498 5499 5500 5503 5506 5508 5510 5511 5513 5517 5522 5525 5529 5531 5533 5535 5537 5538
5363 5368 5374 5380 5385 5390 5396 5402 5409 5414 5419 5424 5429 5435 5439 5444 5449 5453 5458 5463 5467 5472 5476 5479 5483 5486 5488 5489 5490 5491 5490 5489 5487 5489 5492 5494 5496 5496 5497 5499 5502 5505 5507 5508 5510 5516 5519 5523 5526 5529 5530 5532 5534 5536
5370 5375 5379 5384 5390 5396 5401 5407 5413 5417 5422 5427 5432 5437 5441 5446 5450 5454 5459 5464 5468 5472 5476 5479 5482 5484 5486 5488 5488 5488 5488 5487 5485 5486 5489 5492 5494 5494 5495 5496 5498 5501 5503 5507 5509 5513 5517 5520 5523 5526 5528 5529 5532 5533
5375 5379 5384 5389 5394 5399 5404 5409 5413 5418 5423 5429 5433 5437 5442 5447 5451 5456 5459 5464 5468 5472 5475 5478 5481 5483 5484 5485 5486 5486 5486 5487 5487 5488 5490 5491 5491 5491 5492 5493 5495 5498 5500 5504 5508 5511 5514 5517 5520 5523 5524 5525 5528 5529
5378 5382 5387 5392 5397 5402 5407 5411 5416 5421 5425 5430 5434 5439 5442 5448 5452 5456 5460 5464 5468 5471 5474 5477 5480 5481 5483 5484 5484 5485 5485 5485 5487 5487 5488 5489 5489 5489 5490 5491 5493 5495 5498 5501 5505 5509 5512 5514 5517 5519 5520 5522 5524 5525
5383 5386 5390 5394 5399 5403 5407 5413 5419 5423 5428 5432 5436 5441 5445 5449 5453 5455 5459 5463 5467 5470 5474 5476 5478 5480 5481 5482 5482 5483 5483 5483 5484 5485 5486 5487 5487 5487 5488 5488 5490 5493 5496 5499 5502 5505 5507 5510 5512 5515 5517 5518 5520 5522
5386 5390 5393 5397 5400 5405 5410 5414 5419 5423 5428 5433 5437 5441 5445 5449 5452 5456 5460 5463 5466 5469 5472 5474 5476 5478 5479 5480 5481 5481 5482 5482 5482 5484 5485 5486 5487 5487 5487 5488 5489 5491 5493 5495 5498 5501 5503 5506 5508 5511 5513 5514 5517 5518
5389 5393 5396 5399 5403 5408 5412 5416 5420 5425 5429 5434 5438 5442 5445 5449 5452 5456 5459 5462 5465 5468 5470 5473 5474 5476 5478 5479 5479 5480 5480 5480 5481 5482 5483 5484 5486 5486 5486 5487 5489 5490 5491 5493 5496 5498 5500 5503 5505 5507 5509 5511 5512 5513
5393 5395 5399 5402 5406 5410 5414 5418 5422 5426 5431 5434 5438 5441 5445 5449 5452 5455 5459 5462 5465 5467 5469 5471 5473 5475 5476 5477 5477 5477 5477 5477 5478 5479 5481 5483 5484 5486 5487 5487 5488 5489 5490 5492 5494 5495 5497 5499 5501 5503 5505 5506 5507 5508
5397 5400 5403 5406 5409 5412 5415 5419 5424 5427 5431 5434 5438 5441 5444 5448 5452 5455 5459 5462 5464 5466 5468 5470 5472 5473 5474 5474 5475 5475 5474 5473 5474 5476 5478 5481 5482 5484 5486 5487 5488 5489 5490 5491 5492 5493 5494 5496 5498 5500 5501 5502 5503 5503
5401 5403 5406 5409 5412 5415 5418 5422 5425 5428 5431 5434 5438 5441 5444 5448 5451 5454 5458 5460 5462 5464 5467 5469 5470 5471 5472 5472 5472 5472 5472 5471 5473 5474 5477 5479 5481 5482 5484 5485 5486 5488 5489 5490 5490 5491 5492 5494 5495 5496 5497 5498 5498 5497
5402 5405 5409 5412 5415 5418 5420 5423 5426 5429 5431 5435 5438 5441 5444 5447 5451 5454 5456 5458 5461 5462 5465 5467 5468 5469 5470 5470 5470 5470 5471 5471 5472 5474 5475 5477 5479 5480 5481 5483 5484 5485 5486 5486 5487 5488 5489 5490 5491 5492 5492 5491 5490 5489
5404 5407 5410 5413 5417 5419 5422 5424 5427 5429 5432 5435 5437 5440 5443 5446 5449 5452 5455 5456 5458 5460 5462 5464 5465 5466 5467 5468 5468 5469 5470 5470 5471 5472 5474 5475 5476 5478 5479 5480 5481 5482 5483 5483 5484 5484 5485 5485 5485 5485 5484 5483 5482 5480
5404 5407 5411 5413 5416 5419 5422 5424 5427 5429 5432 5434 5437 5440 5442 5445 5448 5451 5453 5453 5454 5457 5459 5461 5462 5464 5464 5465 5466 5466 5467 5468 5469 5470 5471 5472 5474 5475 5476 5477 5478 5478 5479 5479 5480 5480 5479 5479 5478 5477 5476 5474 5472 5470
5405 5408 5410 5413 5416 5418 5421 5423 5425 5427 5430 5432 5435 5437 5440 5442 5445 5447 5449 5450 5451 5454 5455 5457 5459 5460 5460 5461 5462 5463 5464 5465 5466 5467 5467 5469 5470 5471 5472 5473 5473 5474 5474 5474 5474 5473 5473 5471 5470 5469 5467 5465 5463 5460
5404 5406 5408 5411 5413 5415 5417 5419 5421 5423 5426 5428 5430 5433 5435 5438 5440 5442 5444 5446 5447 5450 5452 5453 5454 5455 5456 5457 5458 5459 5460 5461 5461 5462 5462 5463 5464 5465 5466 5467 5468 5468 5468 5468 5468 5467 5465 5464 5462 5459 5457 5455 5452 5450
5403 5404 5406 5407 5409 5411 5413 5414 5416 5418 5420 5422 5425 5428 5430 5432 5435 5437 5440 5441 5443 5446 5447 5449 5450 5451 5452 5453 5453 5454 5455 5455 5456 5456 5456 5456 5457 5458 5459 5460 5461 5461 5461 5461 5460 5459 5457 5455 5453 5450 5447 5445 5442 5440
5400 5401 5404 5404 5406 5408 5409 5410 5412 5413 5415 5417 5420 5422 5424 5427 5429 5433 5436 5437 5438 5440 5441 5443 5446 5447 5448 5449 5449 5449 5449 5450 5450 5450 5450 5449 5449 5449 5451 5452 5453 5454 5454 5453 5452 5450 5448 5446 5443 5441 5438 5436 5433 5431
5398 5400 5401 5402 5403 5404 5406 5407 5408 5410 5411 5413 5415 5418 5420 5423 5425 5428 5430 5431 5432 5433 5435 5438 5441 5442 5443 5444 5444 5444 5444 5444 5443 5443 5443 5442 5442 5442 5443 5445 5445 5446 5446 5445 5443 5441 5439 5437 5435 5432 5429 5427 5424 5421
5396 5397 5399 5400 5401 5402 5403 5405 5406 5408 5409 5411 5413 5415 5417 5419 5421 5423 5425 5426 5428 5430 5432 5434 5435 5437 5438 5438 5438 5438 5438 5437 5437 5436 5436 5436 5436 5436 5437 5437 5438 5438 5438 5436 5434 5432 5430 5428 5426 5423 5421 5418 5415 5411
5395 5397 5398 5399 5400 5401 5402 5404 5405 5406 5407 5409 5410 5412 5414 5415 5417 5419 5421 5423 5424 5426 5428 5429 5431 5432 5432 5432 5432 5432 5432 5432 5431 5430 5430 5430 5430 5431 5431 5431 5431 5431 5429 5428 5426 5424 5422 5419 5417 5415 5412 5408 5405 5400
5396 5397 5398 5399 5400 5401 5402 5403 5404 5405 5406 5407 5409 5410 5411 5412 5413 5415 5417 5419 5421 5423 5424 5425 5426 5427 5427 5427 5427 5427 5426 5426 5425 5424 5424 5425 5425 5425 5425 5425 5424 5423 5422 5420 5417 5415 5413 5411 5409 5406 5403 5399 5395 5390
5396 5397 5398 5398 5399 5400 5401 5402 5403 5404 5405 5406 5407 5409 5409 5411 5412 5413 5414 5416 5417 5418 5419 5420 5420 5420 5420 5421 5421 5421 5420 5420 5419 5418 5419 5419 5419 5419 5419 5418 5417 5416 5414 5412 5410 5407 5405 5403 5400 5397 5393 5389 5384 5379
5394 5395 5395 5396 5396 5397 5398 5399 5400 5401 5402 5403 5404 5405 5406 5407 5408 5409 5410 5411 5411 5412 5413 5413 5413 5414 5415 5415 5415 5415 5414 5414 5413 5412 5413 5413 5413 5412 5412 5411 5410 5408 5406 5404 5402 5400 5397 5395 5391 5387 5383 5378 5373 5368
5391 5391 5392 5393 5393 5393 5393 5394 5395 5397 5398 5398 5399 5400 5401 5402 5403 5404 5405 5405 5405 5406 5406 5407 5407 5408 5408 5408 5408 5408 5408 5407 5407 5407 5407 5407 5406 5406 5405 5404 5403 5400 5398 5396 5394 5392 5389 5386 5382 5377 5372 5367 5362 5356